| time (UTC) | temp F | wind direction | speed MPH | gust MPH | rain 1hr in | rain 24hr in | rain mn in | humidity % | barometer mb |
| 20260503222341 | 76 | 337 | 0.0 | 0.0 | 0.00 | 0.22 | 0.22 | 81 | 1016.0 |
| 20260503221838 | 76 | 325 | 0.0 | 2.0 | 0.00 | 0.22 | 0.22 | 80 | 1016.0 |
| 20260503221337 | 76 | 344 | 0.0 | 1.0 | 0.00 | 0.22 | 0.22 | 81 | 1016.2 |
| 20260503220832 | 77 | 103 | 3.0 | 5.0 | 0.00 | 0.22 | 0.22 | 80 | 1016.1 |
| 20260503220329 | 77 | 49 | 1.0 | 2.0 | 0.00 | 0.22 | 0.22 | 80 | 1016.0 |
| 20260503215826 | 77 | 84 | 2.0 | 5.0 | 0.00 | 0.22 | 0.22 | 79 | 1016.1 |
| 20260503215323 | 77 | 88 | 1.0 | 1.0 | 0.00 | 0.22 | 0.22 | 80 | 1016.2 |
| 20260503214821 | 77 | 30 | 2.0 | 3.0 | 0.00 | 0.22 | 0.22 | 81 | 1016.2 |
| 20260503214318 | 77 | 56 | 3.0 | 3.0 | 0.00 | 0.22 | 0.22 | 80 | 1016.2 |
| 20260503213815 | 77 | 6 | 1.0 | 1.0 | 0.00 | 0.22 | 0.22 | 79 | 1016.1 |
| 20260503213313 | 77 | 104 | 3.0 | 3.0 | 0.00 | 0.22 | 0.22 | 79 | 1016.1 |
| 20260503212804 | 77 | 345 | 0.0 | 0.0 | 0.00 | 0.22 | 0.22 | 80 | 1016.2 |
| 20260503212302 | 77 | 142 | 6.0 | 9.0 | 0.00 | 0.22 | 0.22 | 78 | 1016.2 |
| 20260503211759 | 77 | 179 | 1.0 | 2.0 | 0.00 | 0.22 | 0.22 | 79 | 1016.1 |
| 20260503211255 | 77 | 355 | 2.0 | 3.0 | 0.00 | 0.22 | 0.22 | 79 | 1016.2 |
| 20260503210755 | 77 | 43 | 1.0 | 1.0 | 0.00 | 0.22 | 0.22 | 78 | 1016.2 |
| 20260503210253 | 77 | 154 | 3.0 | 3.0 | 0.00 | 0.22 | 0.22 | 79 | 1016.2 |
| 20260503205748 | 77 | 330 | 0.0 | 0.0 | 0.00 | 0.22 | 0.22 | 81 | 1016.2 |
| 20260503205245 | 77 | 340 | 0.0 | 1.0 | 0.00 | 0.22 | 0.22 | 81 | 1016.5 |
| 20260503204741 | 76 | 4 | 1.0 | 1.0 | 0.00 | 0.22 | 0.22 | 81 | 1016.4 |
| 20260503204239 | 77 | 79 | 1.0 | 2.0 | 0.00 | 0.22 | 0.22 | 81 | 1016.4 |
| 20260503203736 | 77 | 337 | 2.0 | 2.0 | 0.00 | 0.22 | 0.22 | 82 | 1016.6 |
| 20260503203233 | 76 | 94 | 4.0 | 6.0 | 0.00 | 0.22 | 0.22 | 80 | 1016.8 |
| 20260503202730 | 76 | 228 | 2.0 | 3.0 | 0.00 | 0.22 | 0.22 | 80 | 1016.9 |
| 20260503202229 | 77 | 9 | 2.0 | 3.0 | 0.00 | 0.22 | 0.22 | 80 | 1016.7 |
| 20260503201726 | 77 | 327 | 0.0 | 0.0 | 0.00 | 0.22 | 0.22 | 81 | 1016.7 |
| 20260503201224 | 77 | 12 | 2.0 | 2.0 | 0.00 | 0.22 | 0.22 | 80 | 1016.5 |
| 20260503200720 | 76 | 101 | 1.0 | 1.0 | 0.00 | 0.22 | 0.22 | 80 | 1016.6 |
| 20260503200216 | 77 | 99 | 1.0 | 2.0 | 0.00 | 0.22 | 0.22 | 80 | 1016.8 |
| 20260503195713 | 77 | 25 | 1.0 | 1.0 | 0.00 | 0.22 | 0.22 | 80 | 1016.8 |
| 20260503195210 | 77 | 8 | 6.0 | 7.0 | 0.00 | 0.22 | 0.22 | 80 | 1016.8 |
| 20260503194707 | 77 | 69 | 1.0 | 2.0 | 0.00 | 0.22 | 0.22 | 80 | 1016.8 |
| 20260503194203 | 77 | 45 | 3.0 | 3.0 | 0.00 | 0.22 | 0.22 | 80 | 1016.7 |
| 20260503193659 | 77 | 19 | 1.0 | 2.0 | 0.00 | 0.22 | 0.22 | 79 | 1016.8 |
| 20260503193155 | 77 | 344 | 1.0 | 1.0 | 0.00 | 0.22 | 0.22 | 79 | 1016.7 |
| 20260503192651 | 77 | 4 | 5.0 | 9.0 | 0.00 | 0.22 | 0.22 | 78 | 1016.8 |
| 20260503192147 | 77 | 108 | 1.0 | 3.0 | 0.00 | 0.22 | 0.22 | 81 | 1016.8 |
| 20260503191643 | 76 | 351 | 3.0 | 6.0 | 0.00 | 0.22 | 0.22 | 80 | 1016.8 |
| 20260503191140 | 77 | 168 | 2.0 | 2.0 | 0.00 | 0.22 | 0.22 | 80 | 1017.0 |
| 20260503190637 | 77 | 142 | 4.0 | 6.0 | 0.00 | 0.22 | 0.22 | 79 | 1017.1 |
| 20260503190134 | 78 | 292 | 3.0 | 6.0 | 0.00 | 0.22 | 0.22 | 79 | 1017.2 |
| 20260503185631 | 77 | 23 | 2.0 | 3.0 | 0.00 | 0.22 | 0.22 | 80 | 1017.3 |
| 20260503185126 | 77 | 24 | 3.0 | 5.0 | 0.00 | 0.22 | 0.22 | 80 | 1017.5 |
| 20260503184621 | 76 | 357 | 7.0 | 11.0 | 0.00 | 0.22 | 0.22 | 82 | 1017.4 |
| 20260503184118 | 76 | 38 | 1.0 | 2.0 | 0.00 | 0.22 | 0.22 | 84 | 1017.6 |
| 20260503183615 | 75 | 340 | 0.0 | 1.0 | 0.00 | 0.22 | 0.22 | 84 | 1017.7 |
| 20260503183112 | 75 | 355 | 1.0 | 2.0 | 0.00 | 0.22 | 0.22 | 85 | 1017.7 |
| 20260503182610 | 75 | 348 | 4.0 | 7.0 | 0.00 | 0.22 | 0.22 | 86 | 1017.7 |
| 20260503182108 | 75 | 331 | 3.0 | 6.0 | 0.00 | 0.22 | 0.22 | 87 | 1017.8 |
| 20260503181605 | 74 | 348 | 1.0 | 2.0 | 0.00 | 0.22 | 0.22 | 88 | 1017.9 |
| 20260503181102 | 74 | 12 | 2.0 | 3.0 | 0.00 | 0.22 | 0.22 | 88 | 1018.0 |
| 20260503180559 | 75 | 353 | 1.0 | 2.0 | 0.00 | 0.22 | 0.22 | 88 | 1018.2 |
| 20260503180056 | 76 | 347 | 2.0 | 5.0 | 0.00 | 0.22 | 0.22 | 85 | 1018.1 |
| 20260503175553 | 76 | 78 | 4.0 | 5.0 | 0.00 | 0.22 | 0.22 | 84 | 1018.2 |
| 20260503175050 | 75 | 147 | 2.0 | 2.0 | 0.00 | 0.22 | 0.22 | 84 | 1017.9 |
| 20260503174547 | 75 | 34 | 2.0 | 2.0 | 0.00 | 0.22 | 0.22 | 84 | 1018.1 |
| 20260503174044 | 76 | 114 | 0.0 | 0.0 | 0.00 | 0.22 | 0.22 | 84 | 1018.2 |
| 20260503173539 | 75 | 26 | 3.0 | 5.0 | 0.00 | 0.22 | 0.22 | 84 | 1017.8 |
| 20260503173035 | 75 | 72 | 1.0 | 2.0 | 0.00 | 0.22 | 0.22 | 84 | 1017.9 |
| 20260503172533 | 75 | 3 | 1.0 | 1.0 | 0.00 | 0.22 | 0.22 | 84 | 1018.1 |
| 20260503172030 | 75 | 317 | 1.0 | 1.0 | 0.00 | 0.22 | 0.22 | 84 | 1018.3 |
| 20260503171526 | 75 | 329 | 0.0 | 0.0 | 0.00 | 0.22 | 0.22 | 85 | 1018.1 |
| 20260503171024 | 75 | 328 | 1.0 | 2.0 | 0.00 | 0.22 | 0.22 | 85 | 1018.1 |
| 20260503170520 | 75 | 46 | 2.0 | 5.0 | 0.00 | 0.22 | 0.22 | 85 | 1018.2 |
| 20260503150907 | 73 | 315 | 1.0 | 2.0 | 0.00 | 0.22 | 0.22 | 93 | 1018.4 |
| 20260503150403 | 74 | 6 | 2.0 | 2.0 | 0.00 | 0.22 | 0.22 | 93 | 1018.1 |
| 20260503131256 | 70 | 3 | 1.0 | 2.0 | 0.00 | 0.22 | 0.22 | 99 | 1016.9 |
| 20260503130754 | 70 | 1 | 2.0 | 2.0 | 0.00 | 0.22 | 0.22 | 99 | 1017.0 |
| 20260503130251 | 70 | 345 | 2.0 | 3.0 | 0.00 | 0.22 | 0.22 | 99 | 1016.9 |
| 20260503120217 | 70 | 345 | 3.0 | 3.0 | 0.00 | 0.22 | 0.22 | 99 | 1016.4 |
| 20260503110644 | 70 | 332 | 3.0 | 3.0 | 0.07 | 0.22 | 0.22 | 99 | 1015.6 |
| 20260503110142 | 70 | 1 | 7.0 | 8.0 | 0.07 | 0.22 | 0.22 | 99 | 1015.6 |
| 20260503081452 | 73 | 342 | 2.0 | 2.0 | 0.00 | 0.00 | 0.00 | 97 | 1015.1 |
| 20260503080949 | 73 | 317 | 0.0 | 0.0 | 0.00 | 0.00 | 0.00 | 97 | 1014.9 |
| 20260503080445 | 74 | 330 | 1.0 | 2.0 | 0.00 | 0.00 | 0.00 | 96 | 1014.7 |
| 20260503072921 | 74 | 315 | 1.0 | 1.0 | 0.00 | 0.00 | 0.00 | 94 | 1014.7 |
| 20260503072419 | 74 | 324 | 2.0 | 2.0 | 0.00 | 0.00 | 0.00 | 95 | 1014.6 |
| 20260503071916 | 74 | 308 | 0.0 | 1.0 | 0.00 | 0.00 | 0.00 | 95 | 1014.3 |
| 20260503071413 | 74 | 320 | 0.0 | 0.0 | 0.00 | 0.00 | 0.00 | 95 | 1014.3 |
| 20260503070909 | 74 | 325 | 0.0 | 0.0 | 0.00 | 0.00 | 0.00 | 95 | 1014.3 |
| 20260503070406 | 74 | 315 | 0.0 | 0.0 | 0.00 | 0.00 | 0.00 | 95 | 1013.9 |
| 20260503060332 | 73 | 303 | 0.0 | 1.0 | 0.00 | 0.00 | 0.00 | 95 | 1014.6 |
| 20260503054820 | 73 | 292 | 0.0 | 0.0 | 0.00 | 0.00 | 0.00 | 95 | 1014.8 |
| 20260503054316 | 74 | 302 | 0.0 | 0.0 | 0.00 | 0.00 | 0.00 | 95 | 1014.9 |
| 20260503053814 | 74 | 295 | 0.0 | 0.0 | 0.00 | 0.00 | 0.00 | 95 | 1014.9 |
| 20260503053312 | 74 | 290 | 0.0 | 0.0 | 0.00 | 0.00 | 0.00 | 95 | 1015.1 |
| 20260503052808 | 74 | 289 | 1.0 | 1.0 | 0.00 | 0.00 | 0.00 | 95 | 1014.9 |
| 20260503052306 | 74 | 291 | 1.0 | 1.0 | 0.00 | 0.00 | 0.00 | 95 | 1015.1 |
| 20260503051800 | 74 | 297 | 0.0 | 0.0 | 0.00 | 0.00 | 0.00 | 94 | 1015.0 |
| 20260503051252 | 74 | 286 | 1.0 | 1.0 | 0.00 | 0.00 | 0.00 | 94 | 1015.0 |
| 20260503050748 | 74 | 293 | 0.0 | 1.0 | 0.00 | 0.00 | 0.00 | 94 | 1014.9 |
| 20260503050245 | 74 | 285 | 0.0 | 1.0 | 0.00 | 0.00 | 0.00 | 94 | 1014.7 |
| 20260503045742 | 75 | 273 | 0.0 | 1.0 | 0.00 | 0.00 | 0.00 | 94 | 1015.1 |
| 20260503045240 | 75 | 295 | 1.0 | 1.0 | 0.00 | 0.00 | 0.00 | 94 | 1015.0 |
| 20260503044736 | 75 | 292 | 1.0 | 2.0 | 0.00 | 0.00 | 0.00 | 94 | 1014.8 |
| 20260503044233 | 75 | 291 | 1.0 | 1.0 | 0.00 | 0.00 | 0.00 | 94 | 1014.7 |
| 20260503043730 | 75 | 294 | 1.0 | 1.0 | 0.00 | 0.00 | 0.00 | 94 | 1014.5 |
| 20260503043228 | 75 | 309 | 0.0 | 1.0 | 0.00 | 0.00 | 0.00 | 94 | 1014.4 |
| 20260503042723 | 75 | 298 | 1.0 | 2.0 | 0.00 | 0.00 | 0.00 | 94 | 1014.6 |
| 20260503042220 | 75 | 307 | 0.0 | 1.0 | 0.00 | 0.00 | 0.00 | 93 | 1014.2 |
| 20260503041716 | 75 | 315 | 1.0 | 1.0 | 0.00 | 0.00 | 0.00 | 93 | 1014.2 |
| 20260503041214 | 75 | 316 | 0.0 | 0.0 | 0.00 | 0.00 | 0.00 | 93 | 1014.3 |
| 20260503040711 | 75 | 306 | 0.0 | 0.0 | 0.00 | 0.00 | 0.00 | 93 | 1014.2 |
| 20260503040209 | 75 | 296 | 1.0 | 1.0 | 0.00 | 0.00 | 0.00 | 93 | 1014.5 |
| 20260503035705 | 75 | 295 | 0.0 | 1.0 | 0.00 | 0.00 | 0.00 | 93 | 1014.3 |
| 20260503035157 | 75 | 298 | 1.0 | 2.0 | 0.00 | 0.00 | 0.00 | 93 | 1014.4 |
| 20260503034654 | 75 | 281 | 0.0 | 0.0 | 0.00 | 0.00 | 0.00 | 93 | 1014.2 |
| 20260503034151 | 75 | 296 | 1.0 | 1.0 | 0.00 | 0.00 | 0.00 | 92 | 1014.4 |
| 20260503033648 | 75 | 303 | 1.0 | 1.0 | 0.00 | 0.00 | 0.00 | 92 | 1014.3 |
| 20260503033146 | 76 | 272 | 1.0 | 1.0 | 0.00 | 0.00 | 0.00 | 92 | 1014.3 |
| 20260503032644 | 76 | 306 | 1.0 | 1.0 | 0.00 | 0.00 | 0.00 | 91 | 1014.1 |
| 20260503032143 | 76 | 321 | 0.0 | 0.0 | 0.00 | 0.00 | 0.00 | 91 | 1014.4 |
| 20260503031639 | 76 | 250 | 2.0 | 3.0 | 0.00 | 0.00 | 0.00 | 91 | 1014.2 |
| 20260503031137 | 76 | 296 | 1.0 | 2.0 | 0.00 | 0.00 | 0.00 | 90 | 1014.0 |
| 20260503030633 | 76 | 313 | 1.0 | 1.0 | 0.00 | 0.00 | 0.00 | 90 | 1014.0 |
| 20260503030130 | 76 | 282 | 4.0 | 5.0 | 0.00 | 0.00 | 0.00 | 91 | 1013.6 |
| 20260503025626 | 76 | 328 | 0.0 | 0.0 | 0.00 | 0.00 | 0.00 | 92 | 1013.5 |
| 20260503025125 | 76 | 302 | 2.0 | 2.0 | 0.00 | 0.00 | 0.00 | 93 | 1013.3 |
| 20260503024621 | 76 | 329 | 3.0 | 3.0 | 0.00 | 0.00 | 0.00 | 94 | 1013.2 |
| 20260503024118 | 76 | 301 | 0.0 | 0.0 | 0.00 | 0.00 | 0.00 | 94 | 1012.6 |
| 20260503023615 | 76 | 314 | 0.0 | 0.0 | 0.00 | 0.00 | 0.00 | 94 | 1013.0 |
| 20260503023112 | 76 | 325 | 0.0 | 0.0 | 0.00 | 0.00 | 0.00 | 94 | 1012.7 |
| 20260503022608 | 76 | 311 | 0.0 | 0.0 | 0.00 | 0.00 | 0.00 | 93 | 1012.7 |
| 20260503022103 | 76 | 289 | 1.0 | 2.0 | 0.00 | 0.00 | 0.00 | 93 | 1012.6 |
| 20260503021600 | 76 | 340 | 0.0 | 0.0 | 0.00 | 0.00 | 0.00 | 93 | 1012.4 |
| 20260503021056 | 76 | 296 | 0.0 | 0.0 | 0.00 | 0.00 | 0.00 | 92 | 1012.4 |
| 20260503020554 | 77 | 324 | 0.0 | 0.0 | 0.00 | 0.00 | 0.00 | 91 | 1012.2 |
| 20260503020050 | 77 | 311 | 0.0 | 0.0 | 0.00 | 0.00 | 0.00 | 90 | 1011.8 |
| 20260503015547 | 77 | 110 | 3.0 | 3.0 | 0.00 | 0.00 | 0.00 | 89 | 1011.7 |
| 20260503015045 | 77 | 232 | 0.0 | 1.0 | 0.00 | 0.00 | 0.00 | 88 | 1012.1 |
| 20260503014540 | 77 | 199 | 2.0 | 3.0 | 0.00 | 0.00 | 0.00 | 87 | 1011.9 |
| 20260503014039 | 78 | 171 | 1.0 | 1.0 | 0.00 | 0.00 | 0.00 | 86 | 1011.6 |
| 20260503013535 | 78 | 237 | 3.0 | 5.0 | 0.00 | 0.00 | 0.00 | 84 | 1011.9 |
| 20260503013033 | 78 | 132 | 5.0 | 6.0 | 0.00 | 0.00 | 0.00 | 84 | 1011.1 |
| 20260503012530 | 78 | 209 | 0.0 | 0.0 | 0.00 | 0.00 | 0.00 | 83 | 1012.1 |
| 20260503012027 | 78 | 261 | 1.0 | 2.0 | 0.00 | 0.00 | 0.00 | 82 | 1012.3 |
| 20260503011523 | 78 | 242 | 1.0 | 1.0 | 0.00 | 0.00 | 0.00 | 82 | 1012.2 |
| 20260503011021 | 78 | 202 | 1.0 | 2.0 | 0.00 | 0.00 | 0.00 | 82 | 1012.0 |
| 20260503010517 | 78 | 240 | 1.0 | 2.0 | 0.00 | 0.00 | 0.00 | 82 | 1012.3 |
| 20260503010015 | 78 | 207 | 2.0 | 3.0 | 0.00 | 0.00 | 0.00 | 82 | 1012.1 |
| 20260503005511 | 78 | 228 | 1.0 | 1.0 | 0.00 | 0.00 | 0.00 | 81 | 1012.2 |
| 20260503005009 | 78 | 326 | 0.0 | 0.0 | 0.00 | 0.00 | 0.00 | 81 | 1012.4 |
| 20260503004504 | 78 | 318 | 0.0 | 0.0 | 0.00 | 0.00 | 0.00 | 81 | 1012.3 |
| 20260503004003 | 79 | 269 | 0.0 | 0.0 | 0.00 | 0.00 | 0.00 | 80 | 1012.2 |
| 20260503003459 | 79 | 270 | 0.0 | 0.0 | 0.00 | 0.00 | 0.00 | 80 | 1012.0 |
| 20260503002956 | 79 | 210 | 2.0 | 2.0 | 0.00 | 0.00 | 0.00 | 79 | 1012.0 |
| 20260503002453 | 79 | 284 | 0.0 | 0.0 | 0.00 | 0.00 | 0.00 | 79 | 1012.1 |
| 20260503001949 | 79 | 216 | 2.0 | 2.0 | 0.00 | 0.00 | 0.00 | 79 | 1012.0 |
| 20260503001446 | 79 | 323 | 0.0 | 0.0 | 0.00 | 0.00 | 0.00 | 79 | 1012.5 |
| 20260503000944 | 80 | 248 | 1.0 | 1.0 | 0.00 | 0.00 | 0.00 | 78 | 1012.4 |
| 20260503000441 | 80 | 311 | 1.0 | 1.0 | 0.00 | 0.00 | 0.00 | 78 | 1012.3 |
| 20260502235938 | 80 | 264 | 1.0 | 1.0 | 0.00 | 0.00 | 0.00 | 78 | 1012.2 |
| 20260502235435 | 80 | 290 | 0.0 | 1.0 | 0.00 | 0.00 | 0.00 | 77 | 1012.0 |
| 20260502234932 | 80 | 49 | 1.0 | 1.0 | 0.00 | 0.00 | 0.00 | 77 | 1012.3 |
| 20260502234428 | 80 | 303 | 1.0 | 2.0 | 0.00 | 0.00 | 0.00 | 77 | 1012.2 |
| 20260502233926 | 80 | 312 | 0.0 | 0.0 | 0.00 | 0.00 | 0.00 | 76 | 1012.6 |
| 20260502233421 | 80 | 308 | 1.0 | 2.0 | 0.00 | 0.00 | 0.00 | 76 | 1012.8 |
| 20260502232918 | 80 | 311 | 1.0 | 2.0 | 0.00 | 0.00 | 0.00 | 75 | 1012.9 |
| 20260502232414 | 81 | 247 | 3.0 | 3.0 | 0.00 | 0.00 | 0.00 | 73 | 1012.4 |
| 20260502231912 | 81 | 293 | 2.0 | 3.0 | 0.00 | 0.00 | 0.00 | 72 | 1012.4 |
| 20260502231409 | 82 | 297 | 2.0 | 2.0 | 0.00 | 0.00 | 0.00 | 70 | 1012.5 |
| 20260502230907 | 82 | 312 | 2.0 | 2.0 | 0.00 | 0.00 | 0.00 | 70 | 1012.5 |
| 20260502230405 | 82 | 287 | 1.0 | 1.0 | 0.00 | 0.00 | 0.00 | 70 | 1012.6 |
| 20260502225902 | 82 | 306 | 0.0 | 0.0 | 0.00 | 0.00 | 0.00 | 69 | 1011.9 |
| 20260502225358 | 82 | 298 | 1.0 | 1.0 | 0.00 | 0.00 | 0.00 | 69 | 1011.7 |
| 20260502224855 | 82 | 314 | 1.0 | 2.0 | 0.00 | 0.00 | 0.00 | 68 | 1011.7 |
| 20260502224351 | 82 | 313 | 2.0 | 2.0 | 0.00 | 0.00 | 0.00 | 67 | 1011.5 |
| 20260502223849 | 82 | 323 | 0.0 | 1.0 | 0.00 | 0.00 | 0.00 | 67 | 1011.5 |
| 20260502223347 | 82 | 331 | 1.0 | 1.0 | 0.00 | 0.00 | 0.00 | 67 | 1011.3 |
| 20260502222844 | 82 | 301 | 2.0 | 2.0 | 0.00 | 0.00 | 0.00 | 66 | 1011.3 |